Regional Weather Roundup
Issued by NWS Cleveland, OH

Home | Current Version | Previous Version | Graphics & Text | Print | Product List | Glossary On
Versions: 1 2 3 4 5 6 7 8 9 10 11 12 13 14 15 16 17 18 19 20 21 22 23 24 25 26 27 28 29 30 31 32 33 34 35 36 37 38 39 40 41 42 43 44 45 46 47 48 49 50
000
ASUS41 KCLE 252112
RWRCLE
OHIO REGIONAL WEATHER ROUNDUP
NATIONAL WEATHER SERVICE WILMINGTON, OH
500 PM EDT THU MAY 25 2017

NOTE: "FAIR" INDICATES FEW OR NO CLOUDS BELOW 12,000 FEET WITH NO
SIGNIFICANT WEATHER AND/OR OBSTRUCTIONS TO VISIBILITY.

OHZ001>008-015>018-024>027-034-035-043-044-252200-
   NORTHWEST OHIO

CITY           SKY/WX    TMP DP  RH WIND       PRES   REMARKS
DEFIANCE       CLOUDY    62  56  80 NW12      29.53R
FINDLAY        CLOUDY    67  57  70 NW17      29.49R
TOLEDO EXPRESS CLOUDY    61  60  97 NW6       29.50S
TOLEDO EXEC    CLOUDY    63  60  90 NW10      29.50R
LIMA           PTSUNNY   64  59  83 NW14      29.51R
$$

OHZ009>014-019>023-028>033-038-089-252200-
   NORTHEAST OHIO

CITY           SKY/WX    TMP DP  RH WIND       PRES   REMARKS
CLE-HOPKINS    LGT RAIN  62  57  83 SW5       29.49S
CLE-LAKEFRONT  LGT RAIN  59  56  89 SW8       29.46S FOG
CUY CO. ARPT   LGT RAIN  59  57  94 W8        29.48S FOG
LORAIN-ELYRIA    N/A    N/A N/A N/A MISG      29.48
ASHTABULA      PTSUNNY   62  58  86 W5        29.47S
AKRON-CANTON   LGT RAIN  61  55  81 SW8       29.48S
WOOSTER        LGT RAIN  59  57  93 W6        29.49S
MANSFIELD      LGT RAIN  61  59  93 CALM      29.48S
YOUNGSTOWN     PTSUNNY   64  54  69 W9        29.46F
$$

OHZ042-051>053-060>062-070>072-077>081-252200-
  SOUTHWEST OHIO

CITY           SKY/WX    TMP DP  RH WIND       PRES   REMARKS
CINC-COVINGTON CLOUDY    61  58  90 W18G25    29.59R
CINC-LUNKEN    CLOUDY    63  59  87 W10G23    29.58R
HAMILTON       CLOUDY    63  59  87 NW15G28   29.58R
DAYTON         CLOUDY    64  59  83 NW22G30   29.54R
WRIGHT-PAT AFB PTSUNNY   68  61  77 W16G28    29.51R
DAYTON GENERAL CLOUDY    65  58  78 NW22G29   29.54R
WILMINGTON     PTSUNNY   65  60  84 N7        29.50F
$$

OHZ036-037-039>041-045>050-054>059-063>069-073>076-082>088-252200-
  CENTRAL AND SOUTHEAST OHIO

CITY           SKY/WX    TMP DP  RH WIND       PRES   REMARKS
COLUMBUS       PTSUNNY   67  57  70 SW6       29.47R
OSU AIRPORT    LGT RAIN  63  62  97 VRB6      29.48R FOG
BOLTON FIELD   PTSUNNY   66  59  77 CALM      29.48
RICKENBACK AFB LGT RAIN  64  58  81 E5        29.48R
NEWARK         PTSUNNY   66  57  72 NW5       29.47S
MARION         LGT RAIN  65  58  78 NE7       29.49R
LANCASTER      PTSUNNY   70  56  61 SW9       29.48R
ZANESVILLE     LGT RAIN  63  57  81 S3        29.48S
NEW PHILLY     CLOUDY    61  57  87 SW6       29.49S
$$



USA.gov is the U.S. government's official web portal to all federal, state and local government web resources and services.